Time,TemperatureF,DewpointF,PressureIn,WindDirection,WindDirectionDegrees,WindSpeedMPH,WindSpeedGustMPH,Humidity,HourlyPrecipIn,Conditions,Clouds,dailyrainin,SoftwareType,DateUTC
2013-10-05 00:10:00,62.3,61.0,30.09,NNE,18,0.0,0.0,95,0.00,,,0.00,weatherlink.com 1.10,2013-10-05 04:10:00,
2013-10-05 00:25:00,61.8,60.0,30.09,NNE,18,0.0,0.0,95,0.00,,,0.00,weatherlink.com 1.10,2013-10-05 04:25:00,
2013-10-05 00:40:00,61.3,60.0,30.09,NNE,18,0.0,0.0,95,0.00,,,0.00,weatherlink.com 1.10,2013-10-05 04:40:00,
2013-10-05 00:55:00,61.5,60.0,30.09,NNE,18,0.0,1.0,95,0.00,,,0.00,weatherlink.com 1.10,2013-10-05 04:55:00,
2013-10-05 01:10:00,61.2,60.0,30.09,NNE,18,0.0,0.0,95,0.00,,,0.00,weatherlink.com 1.10,2013-10-05 05:10:00,
2013-10-05 01:25:00,61.0,60.0,30.08,NNE,18,0.0,0.0,95,0.00,,,0.00,weatherlink.com 1.10,2013-10-05 05:25:00,
2013-10-05 01:40:00,61.0,60.0,30.08,NNE,18,0.0,0.0,96,0.00,,,0.00,weatherlink.com 1.10,2013-10-05 05:40:00,
2013-10-05 01:55:00,60.7,59.0,30.08,NNE,18,0.0,0.0,95,0.00,,,0.00,weatherlink.com 1.10,2013-10-05 05:55:00,
2013-10-05 02:10:00,60.3,59.0,30.08,NNE,18,0.0,0.0,95,0.00,,,0.00,weatherlink.com 1.10,2013-10-05 06:10:00,
2013-10-05 02:25:00,60.3,59.0,30.09,NNE,18,0.0,0.0,96,0.00,,,0.00,weatherlink.com 1.10,2013-10-05 06:25:00,
2013-10-05 02:40:00,59.8,59.0,30.09,NNE,18,0.0,0.0,96,0.00,,,0.00,weatherlink.com 1.10,2013-10-05 06:40:00,
2013-10-05 02:55:00,59.6,58.0,30.08,NNE,18,0.0,0.0,95,0.00,,,0.00,weatherlink.com 1.10,2013-10-05 06:55:00,
2013-10-05 03:10:00,59.8,59.0,30.08,NNE,18,0.0,0.0,96,0.00,,,0.00,weatherlink.com 1.10,2013-10-05 07:10:00,
2013-10-05 03:25:00,59.8,59.0,30.08,NNE,18,0.0,0.0,96,0.00,,,0.00,weatherlink.com 1.10,2013-10-05 07:25:00,
2013-10-05 03:40:00,59.3,58.0,30.08,NNE,18,0.0,0.0,96,0.00,,,0.00,weatherlink.com 1.10,2013-10-05 07:40:00,
2013-10-05 03:55:00,59.0,58.0,30.08,NNE,18,0.0,0.0,96,0.00,,,0.00,weatherlink.com 1.10,2013-10-05 07:55:00,
2013-10-05 04:10:00,59.3,58.0,30.08,NNE,18,0.0,0.0,96,0.00,,,0.00,weatherlink.com 1.10,2013-10-05 08:10:00,
2013-10-05 04:25:00,59.5,58.0,30.08,NNE,18,0.0,0.0,96,0.00,,,0.00,weatherlink.com 1.10,2013-10-05 08:25:00,
2013-10-05 04:40:00,58.7,58.0,30.08,NNE,18,0.0,0.0,96,0.00,,,0.00,weatherlink.com 1.10,2013-10-05 08:40:00,
2013-10-05 04:55:00,58.0,57.0,30.08,NNE,18,0.0,0.0,96,0.00,,,0.00,weatherlink.com 1.10,2013-10-05 08:55:00,
2013-10-05 05:10:00,58.6,58.0,30.09,NNE,18,0.0,0.0,96,0.00,,,0.00,weatherlink.com 1.10,2013-10-05 09:10:00,
2013-10-05 05:25:00,58.3,57.0,30.09,NNE,18,0.0,0.0,96,0.00,,,0.00,weatherlink.com 1.10,2013-10-05 09:25:00,
2013-10-05 05:40:00,58.2,57.0,30.10,NNE,18,0.0,0.0,96,0.00,,,0.00,weatherlink.com 1.10,2013-10-05 09:40:00,
2013-10-05 05:56:00,57.9,57.0,30.10,NNE,18,0.0,0.0,96,0.00,,,0.00,weatherlink.com 1.10,2013-10-05 09:56:00,
2013-10-05 06:11:00,57.5,56.0,30.10,NNE,18,0.0,0.0,96,0.00,,,0.00,weatherlink.com 1.10,2013-10-05 10:11:00,
2013-10-05 06:26:00,57.3,56.0,30.11,NNE,18,0.0,0.0,96,0.00,,,0.00,weatherlink.com 1.10,2013-10-05 10:26:00,
2013-10-05 06:41:00,57.8,57.0,30.11,NNE,18,0.0,0.0,96,0.00,,,0.00,weatherlink.com 1.10,2013-10-05 10:41:00,
2013-10-05 06:56:00,57.3,56.0,30.11,NNE,18,0.0,0.0,96,0.00,,,0.00,weatherlink.com 1.10,2013-10-05 10:56:00,
2013-10-05 07:11:00,57.6,57.0,30.11,NNE,18,0.0,0.0,96,0.00,,,0.00,weatherlink.com 1.10,2013-10-05 11:11:00,
2013-10-05 07:26:00,57.2,56.0,30.11,NNE,18,0.0,0.0,96,0.00,,,0.00,weatherlink.com 1.10,2013-10-05 11:26:00,
2013-10-05 07:41:00,57.2,56.0,30.11,NNE,18,0.0,0.0,96,0.00,,,0.00,weatherlink.com 1.10,2013-10-05 11:41:00,
2013-10-05 08:11:00,59.6,59.0,30.12,NNE,21,0.0,0.0,97,0.00,,,0.00,weatherlink.com 1.10,2013-10-05 12:11:00,
2013-10-05 08:26:00,61.1,60.0,30.12,North,1,0.0,0.0,97,0.00,,,0.00,weatherlink.com 1.10,2013-10-05 12:26:00,
2013-10-05 08:41:00,63.8,63.0,30.12,North,1,0.0,0.0,97,0.00,,,0.00,weatherlink.com 1.10,2013-10-05 12:41:00,
2013-10-05 08:56:00,66.3,65.0,30.12,WSW,241,0.0,2.0,95,0.00,,,0.00,weatherlink.com 1.10,2013-10-05 12:56:00,
2013-10-05 09:11:00,68.0,66.0,30.12,WSW,241,0.0,2.0,93,0.00,,,0.00,weatherlink.com 1.10,2013-10-05 13:11:00,
2013-10-05 09:26:00,70.5,67.0,30.12,ESE,117,1.0,1.0,89,0.00,,,0.00,weatherlink.com 1.10,2013-10-05 13:26:00,
2013-10-05 09:41:00,71.9,67.0,30.12,SW,234,0.0,4.0,85,0.00,,,0.00,weatherlink.com 1.10,2013-10-05 13:41:00,
2013-10-05 09:56:00,73.8,68.0,30.12,WSW,240,0.0,4.0,83,0.00,,,0.00,weatherlink.com 1.10,2013-10-05 13:56:00,
2013-10-05 10:11:00,76.2,69.0,30.12,SSW,206,0.0,1.0,79,0.00,,,0.00,weatherlink.com 1.10,2013-10-05 14:11:00,
2013-10-05 10:26:00,78.1,69.0,30.12,WNW,283,0.0,3.0,73,0.00,,,0.00,weatherlink.com 1.10,2013-10-05 14:26:00,
2013-10-05 10:41:00,80.1,70.0,30.11,NW,305,1.0,3.0,70,0.00,,,0.00,weatherlink.com 1.10,2013-10-05 14:41:00,
2013-10-05 10:56:00,81.1,70.0,30.11,NW,309,0.0,4.0,68,0.00,,,0.00,weatherlink.com 1.10,2013-10-05 14:56:00,
2013-10-05 11:11:00,82.4,69.0,30.11,SSE,152,0.0,3.0,65,0.00,,,0.00,weatherlink.com 1.10,2013-10-05 15:11:00,
2013-10-05 11:26:00,83.5,69.0,30.11,SSE,167,1.0,3.0,62,0.00,,,0.00,weatherlink.com 1.10,2013-10-05 15:26:00,
2013-10-05 11:42:00,84.1,70.0,30.10,SSE,149,1.0,4.0,62,0.00,,,0.00,weatherlink.com 1.10,2013-10-05 15:42:00,
2013-10-05 11:57:00,85.0,69.0,30.10,West,274,2.0,3.0,58,0.00,,,0.00,weatherlink.com 1.10,2013-10-05 15:57:00,
2013-10-05 12:12:00,86.1,69.0,30.10,East,87,0.0,3.0,57,0.00,,,0.00,weatherlink.com 1.10,2013-10-05 16:12:00,
2013-10-05 12:27:00,87.0,69.0,30.09,North,1,3.0,6.0,55,0.00,,,0.00,weatherlink.com 1.10,2013-10-05 16:27:00,
2013-10-05 12:42:00,87.3,69.0,30.09,SSE,158,3.0,5.0,55,0.00,,,0.00,weatherlink.com 1.10,2013-10-05 16:42:00,
2013-10-05 12:57:00,87.5,68.0,30.08,ENE,63,2.0,7.0,52,0.00,,,0.00,weatherlink.com 1.10,2013-10-05 16:57:00,
2013-10-05 13:12:00,88.2,68.0,30.08,SSE,160,5.0,11.0,52,0.00,,,0.00,weatherlink.com 1.10,2013-10-05 17:12:00,
2013-10-05 13:27:00,88.1,67.0,30.07,ESE,117,6.0,7.0,50,0.00,,,0.00,weatherlink.com 1.10,2013-10-05 17:27:00,
2013-10-05 13:42:00,88.1,67.0,30.06,SE,139,3.0,7.0,50,0.00,,,0.00,weatherlink.com 1.10,2013-10-05 17:42:00,
2013-10-05 13:57:00,87.2,67.0,30.06,WSW,248,0.0,4.0,51,0.00,,,0.00,weatherlink.com 1.10,2013-10-05 17:57:00,
2013-10-05 14:12:00,88.1,68.0,30.05,North,359,2.0,4.0,51,0.00,,,0.00,weatherlink.com 1.10,2013-10-05 18:12:00,
2013-10-05 14:27:00,89.6,67.0,30.05,SE,129,3.0,6.0,47,0.00,,,0.00,weatherlink.com 1.10,2013-10-05 18:27:00,
2013-10-05 14:42:00,89.2,67.0,30.04,SSE,166,1.0,7.0,48,0.00,,,0.00,weatherlink.com 1.10,2013-10-05 18:42:00,
2013-10-05 14:57:00,90.2,67.0,30.04,SW,233,0.0,6.0,47,0.00,,,0.00,weatherlink.com 1.10,2013-10-05 18:57:00,
2013-10-05 15:12:00,89.3,66.0,30.04,SSE,147,1.0,10.0,46,0.00,,,0.00,weatherlink.com 1.10,2013-10-05 19:12:00,
2013-10-05 15:27:00,90.4,68.0,30.04,West,263,2.0,6.0,47,0.00,,,0.00,weatherlink.com 1.10,2013-10-05 19:27:00,
2013-10-05 15:42:00,90.7,67.0,30.03,South,169,0.0,6.0,45,0.00,,,0.00,weatherlink.com 1.10,2013-10-05 19:42:00,
2013-10-05 15:57:00,90.2,67.0,30.03,SE,124,5.0,6.0,46,0.00,,,0.00,weatherlink.com 1.10,2013-10-05 19:57:00,
2013-10-05 16:12:00,90.3,67.0,30.03,SSE,165,3.0,8.0,46,0.00,,,0.00,weatherlink.com 1.10,2013-10-05 20:12:00,
2013-10-05 16:27:00,90.8,67.0,30.02,WSW,248,3.0,5.0,45,0.00,,,0.00,weatherlink.com 1.10,2013-10-05 20:27:00,
2013-10-05 16:42:00,90.4,67.0,30.02,SSW,202,0.0,5.0,46,0.00,,,0.00,weatherlink.com 1.10,2013-10-05 20:42:00,
2013-10-05 16:57:00,89.9,66.0,30.02,SSE,155,0.0,4.0,46,0.00,,,0.00,weatherlink.com 1.10,2013-10-05 20:57:00,
2013-10-05 17:12:00,89.5,67.0,30.02,WSW,246,0.0,3.0,48,0.00,,,0.00,weatherlink.com 1.10,2013-10-05 21:12:00,
2013-10-05 17:27:00,89.0,66.0,30.02,WSW,240,1.0,4.0,47,0.00,,,0.00,weatherlink.com 1.10,2013-10-05 21:27:00,
2013-10-05 17:42:00,89.2,66.0,30.02,South,184,0.0,3.0,47,0.00,,,0.00,weatherlink.com 1.10,2013-10-05 21:42:00,
2013-10-05 17:57:00,88.6,67.0,30.01,SW,231,0.0,1.0,49,0.00,,,0.00,weatherlink.com 1.10,2013-10-05 21:57:00,
2013-10-05 18:12:00,87.7,68.0,30.02,SW,231,0.0,0.0,52,0.00,,,0.00,weatherlink.com 1.10,2013-10-05 22:12:00,
2013-10-05 18:27:00,85.1,69.0,30.02,SW,231,0.0,1.0,58,0.00,,,0.00,weatherlink.com 1.10,2013-10-05 22:27:00,
2013-10-05 18:42:00,82.5,68.0,30.02,SW,231,0.0,1.0,62,0.00,,,0.00,weatherlink.com 1.10,2013-10-05 22:42:00,
2013-10-05 18:57:00,79.4,69.0,30.02,SW,231,0.0,1.0,71,0.00,,,0.00,weatherlink.com 1.10,2013-10-05 22:57:00,
2013-10-05 19:12:00,77.2,69.0,30.02,SW,231,0.0,0.0,75,0.00,,,0.00,weatherlink.com 1.10,2013-10-05 23:12:00,
2013-10-05 19:27:00,75.3,68.0,30.03,SW,231,0.0,1.0,79,0.00,,,0.00,weatherlink.com 1.10,2013-10-05 23:27:00,
2013-10-05 19:42:00,74.4,68.0,30.03,SW,231,0.0,0.0,81,0.00,,,0.00,weatherlink.com 1.10,2013-10-05 23:42:00,
2013-10-05 19:57:00,73.2,68.0,30.03,SW,231,0.0,0.0,83,0.00,,,0.00,weatherlink.com 1.10,2013-10-05 23:57:00,
2013-10-05 20:12:00,72.3,68.0,30.04,SW,231,0.0,0.0,85,0.00,,,0.00,weatherlink.com 1.10,2013-10-06 00:12:00,
2013-10-05 20:27:00,71.5,68.0,30.04,SW,231,0.0,0.0,87,0.00,,,0.00,weatherlink.com 1.10,2013-10-06 00:27:00,
2013-10-05 20:42:00,70.8,67.0,30.04,SW,231,0.0,0.0,88,0.00,,,0.00,weatherlink.com 1.10,2013-10-06 00:42:00,
2013-10-05 20:57:00,70.2,67.0,30.04,SW,231,0.0,0.0,89,0.00,,,0.00,weatherlink.com 1.10,2013-10-06 00:57:00,
2013-10-05 21:13:00,69.6,67.0,30.04,SW,231,0.0,0.0,91,0.00,,,0.00,weatherlink.com 1.10,2013-10-06 01:13:00,
2013-10-05 21:28:00,69.0,66.0,30.05,SW,231,0.0,0.0,91,0.00,,,0.00,weatherlink.com 1.10,2013-10-06 01:28:00,
2013-10-05 21:43:00,68.3,66.0,30.05,SW,231,0.0,0.0,92,0.00,,,0.00,weatherlink.com 1.10,2013-10-06 01:43:00,
2013-10-05 21:58:00,67.9,66.0,30.05,SW,231,0.0,0.0,92,0.00,,,0.00,weatherlink.com 1.10,2013-10-06 01:58:00,
2013-10-05 22:13:00,67.4,65.0,30.06,SW,231,0.0,0.0,93,0.00,,,0.00,weatherlink.com 1.10,2013-10-06 02:13:00,
2013-10-05 22:28:00,66.9,65.0,30.06,SW,231,0.0,0.0,93,0.00,,,0.00,weatherlink.com 1.10,2013-10-06 02:28:00,
2013-10-05 22:43:00,66.6,65.0,30.05,SW,231,0.0,0.0,94,0.00,,,0.00,weatherlink.com 1.10,2013-10-06 02:43:00,
2013-10-05 22:58:00,66.2,65.0,30.05,SW,231,0.0,0.0,94,0.00,,,0.00,weatherlink.com 1.10,2013-10-06 02:58:00,
2013-10-05 23:13:00,66.0,64.0,30.05,SW,231,0.0,0.0,94,0.00,,,0.00,weatherlink.com 1.10,2013-10-06 03:13:00,
2013-10-05 23:28:00,65.7,64.0,30.05,SW,231,0.0,0.0,94,0.00,,,0.00,weatherlink.com 1.10,2013-10-06 03:28:00,
2013-10-05 23:43:00,65.5,64.0,30.05,SW,231,0.0,1.0,95,0.00,,,0.00,weatherlink.com 1.10,2013-10-06 03:43:00,
2013-10-05 23:58:00,65.1,64.0,30.05,SW,231,0.0,0.0,95,0.00,,,0.00,weatherlink.com 1.10,2013-10-06 03:58:00,